Weather reports worldwide

Advertisment
Treviso/Istrana, Italy (16098): temperature & dewpoint: 14.10.2020 16:00:00 - 20.10.2020 16:00:00 (CEST)Treviso/Istrana, Italy (16098): wind speed: 14.10.2020 16:00:00 - 20.10.2020 16:00:00 (CEST)Treviso/Istrana, Italy (16098): wind direction: 14.10.2020 16:00:00 - 20.10.2020 16:00:00 (CEST)Treviso/Istrana, Italy (16098): reduced air pressure: 14.10.2020 16:00:00 - 20.10.2020 16:00:00 (CEST)Treviso/Istrana, Italy (16098): visibility: 14.10.2020 16:00:00 - 20.10.2020 16:00:00 (CEST)
Date & Time tt [°C] td [°C] ff [km/h] ff [kn] dd ppp [hPa] vv [km]
20.10.2020 16:00:00 17,0 12,5 8 4 SW 1024,2 5
20.10.2020 15:00:00 16,4 12,0 5 3 SW 1024,5 5
20.10.2020 14:00:00 16,6 12,2 4 2 SSW 1024,9 5
20.10.2020 13:00:00 15,0 12,5 4 2 NNE 1025,1 4,5
20.10.2020 12:00:00 14,6 13,0 5 3 ESE 1025,4 4,0
20.10.2020 11:00:00 13,0 11,7 9 5 E 1024,9 4,0
20.10.2020 10:00:00 10,4 9,5 0 0 N 1024,8 2,5
20.10.2020 09:00:00 9,0 7,4 2 1 SSW 1024,6 1,6
20.10.2020 08:00:00 9,0 8,1 0 0 N 1024,2 0,5
20.10.2020 07:00:00 9,8 8,7 0 0 N 1024,2 0,1
20.10.2020 06:00:00 10,4 9,6 8 4 NNE 1024,2 0,1
20.10.2020 05:00:00 10,4 9,6 0 0 N 1024,3 0,1
20.10.2020 04:00:00 11,0 10,2 0 0 N 1025,0 0,1
20.10.2020 03:00:00 11,4 10,6 0 0 N 1025,0 0,8
20.10.2020 02:00:00 11,6 10,8 0 0 N 1025,0 3,5
20.10.2020 01:00:00 13,0 12,1 0 0 N 1025,0 6
20.10.2020 00:00:00 13,0 12,1 0 0 N 1025,0 8
19.10.2020 23:00:00 13,4 12,5 0 0 N 1024,3 10
19.10.2020 22:00:00 13,4 12,3 4 2 SSE 1024,2 10
19.10.2020 21:00:00 13,4 12,5 4 2 S 1023,9 10
19.10.2020 20:00:00 14,6 13,5 4 2 S 1023,9 10
19.10.2020 19:00:00 16,2 14,9 4 2 S 1023,3 10
19.10.2020 18:00:00 18,0 14,1 5 3 S 1023,3 10
19.10.2020 17:00:00 18,2 13,7 5 3 W 1023,5 10
19.10.2020 16:00:00 18,2 12,9 11 6 WSW 1023,8 10
19.10.2020 15:00:00 19,4 13,8 8 4 SW 1023,9 10
19.10.2020 14:00:00 18,4 13,0 8 4 WSW 1023,9 10
19.10.2020 13:00:00 16,4 12,0 4 2 NW 1024,9 12
19.10.2020 12:00:00 16,6 12,7 5 3 SE 1025,0 12
19.10.2020 11:00:00 14,0 11,4 5 3 E 1024,1 10
19.10.2020 10:00:00 12,2 10,9 4 2 N 1023,5 9
19.10.2020 09:00:00 11,0 9,8 0 0 N 1023,5 8
19.10.2020 08:00:00 10,8 9,7 0 0 N 1023,5 10
19.10.2020 07:00:00 10,6 9,5 4 2 NE 1023,3 8
19.10.2020 06:00:00 10,6 9,2 8 4 ENE 1023,2 8
19.10.2020 05:00:00 10,2 9,0 0 0 N 1023,3 8
19.10.2020 04:00:00 10,4 9,0 9 5 NE 1023,2 8
19.10.2020 03:00:00 10,4 9,0 8 4 NE 1023,2 7
19.10.2020 02:00:00 9,8 8,7 5 3 NNE 1023,3 7
19.10.2020 01:00:00 10,4 9,2 4 2 NNE 1022,8 8
19.10.2020 00:00:00 10,4 9,3 0 0 N 1022,5 8
18.10.2020 23:00:00 10,8 9,7 4 2 N 1022,5 5
18.10.2020 22:00:00 10,8 9,9 5 3 N 1022,0 10
18.10.2020 21:00:00 11,2 10,6 0 0 N 1021,8 10
18.10.2020 20:00:00 12,6 12,0 4 2 ESE 1021,8 10
18.10.2020 19:00:00 14,4 12,8 5 3 SW 1020,6 12
18.10.2020 18:00:00 16,0 12,5 9 5 S 1020,6 12
18.10.2020 17:00:00 17,4 11,7 0 0 N 1020,2 12
18.10.2020 16:00:00 17,4 10,5 8 4 SW 1020,1 12
18.10.2020 15:00:00 18,2 11,3 9 5 S 1020,4 12
18.10.2020 14:00:00 17,6 11,4 0 0 N 1021,0 12
18.10.2020 13:00:00 16,4 11,5 8 4 SSE 1021,1 12
18.10.2020 12:00:00 15,2 10,2 4 2 E 1021,2 12
18.10.2020 11:00:00 13,8 11,1 5 3 ENE 1021,2 12
18.10.2020 10:00:00 12,8 11,4 5 3 NE 1020,6 12
18.10.2020 09:00:00 11,2 10,3 0 0 N 1020,4 12
18.10.2020 08:00:00 11,0 9,9 0 0 N 1018,8 10
18.10.2020 07:00:00 10,0 8,4 5 3 NNE 1018,6 10
18.10.2020 06:00:00 10,0 8,4 5 3 ENE 1017,8 10
18.10.2020 05:00:00 10,0 8,4 5 3 ENE 1017,8 10
18.10.2020 04:00:00 - - - - - - -
18.10.2020 03:00:00 - - - - - - -
18.10.2020 02:00:00 11,8 10,2 5 3 NE 1017,8 10
18.10.2020 01:00:00 11,8 10,2 8 4 NE 1017,3 10
18.10.2020 00:00:00 12,0 10,4 5 3 ENE 1017,3 10
17.10.2020 23:00:00 12,0 10,7 11 6 ENE 1016,8 10
17.10.2020 22:00:00 12,0 11,4 4 2 ENE 1016,8 10
17.10.2020 21:00:00 13,0 12,4 4 2 E 1016,4 10
17.10.2020 20:00:00 13,0 11,9 4 2 E 1015,9 10
17.10.2020 19:00:00 14,0 12,0 4 2 ENE 1014,9 10
17.10.2020 18:00:00 16,0 11,4 4 2 SW 1014,9 15
17.10.2020 17:00:00 16,0 10,5 0 0 N 1014,9 15
17.10.2020 16:00:00 16,0 11,0 0 0 N 1014,9 25
17.10.2020 15:00:00 16,0 11,2 0 0 N 1014,2 25
17.10.2020 14:00:00 15,0 10,6 4 2 E 1014,7 25
17.10.2020 13:00:00 15,0 11,0 5 3 E 1015,2 25
17.10.2020 12:00:00 14,0 10,2 9 5 ENE 1015,1 20
17.10.2020 11:00:00 13,0 9,6 11 6 E 1015,2 20
17.10.2020 10:00:00 11,0 9,4 8 4 ENE 1014,7 20
17.10.2020 09:00:00 10,0 9,7 8 4 ENE 1013,8 15
17.10.2020 08:00:00 10,8 9,1 9 5 NE 1013,6 14
17.10.2020 07:00:00 10,4 8,7 8 4 ENE 1013,5 10
17.10.2020 06:00:00 9,8 8,2 8 4 NE 1013,3 9
17.10.2020 05:00:00 9,6 8,0 8 4 NE 1013,2 9
17.10.2020 04:00:00 9,2 7,8 8 4 NNE 1013,3 9
17.10.2020 03:00:00 8,6 7,4 8 4 NE 1013,3 9
17.10.2020 02:00:00 9,2 8,1 2 1 NE 1013,3 9
17.10.2020 01:00:00 10,4 9,8 2 1 NNE 1013,4 11
17.10.2020 00:00:00 11,4 11,1 2 1 E 1013,4 11
16.10.2020 23:00:00 12,0 11,5 2 1 ESE 1013,2 11
16.10.2020 22:00:00 12,0 11,2 2 1 SSW 1013,1 12
16.10.2020 21:00:00 12,4 11,0 2 1 SSW 1012,8 15
16.10.2020 20:00:00 13,2 11,1 4 2 WSW 1012,4 18
16.10.2020 19:00:00 14,4 9,6 4 2 SSE 1011,9 20
16.10.2020 18:00:00 16,2 9,2 5 3 S 1011,5 20
16.10.2020 17:00:00 17,0 8,9 4 2 SSE 1011,4 25
16.10.2020 16:00:00 16,8 7,7 4 2 SE 1011,5 30
16.10.2020 15:00:00 16,4 8,9 5 3 E 1011,6 35
16.10.2020 14:00:00 16,8 8,7 9 5 E 1011,8 40
16.10.2020 13:00:00 16,4 8,9 5 3 SSW 1012,1 45
16.10.2020 12:00:00 15,4 8,4 8 4 ENE 1012,0 50
16.10.2020 11:00:00 14,4 9,6 8 4 NNE 1011,6 50
16.10.2020 10:00:00 11,8 10,0 5 3 N 1011,6 50
16.10.2020 09:00:00 10,2 9,4 8 4 N 1011,4 30
16.10.2020 08:00:00 10,0 8,4 5 3 N 1010,0 20
16.10.2020 07:00:00 10,0 8,4 5 3 NE 1009,7 10
16.10.2020 06:00:00 10,4 8,8 8 4 NNE 1009,7 10
16.10.2020 05:00:00 10,4 8,8 8 4 NNE 1011,0 10
16.10.2020 04:00:00 11,0 8,4 8 4 NNE 1010,0 10
16.10.2020 03:00:00 11,0 8,7 5 3 N 1010,0 10
16.10.2020 02:00:00 11,0 8,6 9 5 ENE 1009,5 10
16.10.2020 01:00:00 11,4 9,0 15 8 ENE 1009,0 9
16.10.2020 00:00:00 10,6 8,2 15 8 ENE 1008,2 9
15.10.2020 23:00:00 11,0 8,6 21 11 E 1007,3 9
15.10.2020 22:00:00 11,0 8,6 13 7 ENE 1007,2 8
15.10.2020 21:00:00 11,0 8,9 16 9 ENE 1006,9 8
15.10.2020 20:00:00 11,0 9,1 21 11 ENE 1006,4 7
15.10.2020 19:00:00 11,0 9,4 26 14 NE 1006,4 7
15.10.2020 18:00:00 11,0 10,2 26 14 ENE 1006,2 7
15.10.2020 17:00:00 11,4 11,1 24 13 ENE 1005,4 3,5
15.10.2020 16:00:00 12,0 11,2 24 13 ENE 1005,4 7
15.10.2020 15:00:00 12,0 11,4 24 13 NE 1004,9 6
15.10.2020 14:00:00 12,0 11,2 24 13 ENE 1004,8 3,0
15.10.2020 13:00:00 12,0 11,7 28 15 ENE 1004,4 3,0
15.10.2020 12:00:00 12,0 11,2 26 14 ENE 1004,5 2,5
15.10.2020 11:00:00 12,0 11,2 29 16 ENE 1003,9 3,0
15.10.2020 10:00:00 12,0 11,2 26 14 ENE 1003,5 5
15.10.2020 09:00:00 12,0 11,2 29 16 ENE 1004,0 7
15.10.2020 08:00:00 12,0 11,2 24 13 ENE 1005,1 6
15.10.2020 07:00:00 11,4 10,3 18 10 E 1005,9 6
15.10.2020 06:00:00 11,0 9,9 11 6 ENE 1005,9 8
15.10.2020 05:00:00 11,4 10,6 18 10 NE 1006,1 8
15.10.2020 04:00:00 11,4 10,6 18 10 ENE 1007,7 8
15.10.2020 03:00:00 12,0 10,4 15 8 NE 1009,9 8
15.10.2020 02:00:00 12,0 10,4 13 7 ENE 1009,9 10
15.10.2020 01:00:00 12,4 10,8 9 5 ENE 1009,9 10
15.10.2020 00:00:00 13,0 11,4 11 6 ENE 1009,9 10
14.10.2020 23:00:00 13,0 11,4 11 6 N 1009,9 10
14.10.2020 22:00:00 13,0 11,1 9 5 N 1009,9 10
14.10.2020 21:00:00 13,0 11,1 5 3 N 1009,9 10
14.10.2020 20:00:00 13,2 10,7 8 4 NNE 1010,0 10
14.10.2020 19:00:00 14,6 10,0 8 4 E 1009,9 10
14.10.2020 18:00:00 16,4 10,0 8 4 SSE 1009,5 10
14.10.2020 17:00:00 17,0 10,4 4 2 SSE 1009,8 15
14.10.2020 16:00:00 17,0 9,2 8 4 SSE 1010,3 15

tt = temperature
td = dewpoint
ff = wind speed
dd = wind direction
ppp = reduced air pressure
vv = visibility

Next stations